Tracking 29892 objects as of 21-Nov-2024
HD Live streaming from Space Station
objects crossing your sky now

SCOUT G-1 DEB

Track SCOUT G-1 DEB now!
10-day predictions


NORAD ID: 43330
Int'l Code: 1988-033L
Perigee: 1,000.8 km
Apogee: 1,291.8 km
Inclination: 90.3 °
Period: 108.1 minutes
Semi major axis: 7517 km
RCS: Unknown
Launch date: April 26, 1988
Source: United States (US)
Launch site: AIR FORCE WESTERN TEST RANGE (AFWTR)

Note: This is SATELLITE DEBRIS
Your satellite tracking list
Your tracking list is empty




NASA's NSSDC Master Catalog

Two Line Element Set (TLE):
1 43330U 88033L   24324.54087670  .00000908  00000-0  16811-2 0  9993
2 43330  90.3127   0.8174 0193527 142.5715 218.9087 13.32023231583066
Source of the keplerian elements: AFSPC